Regional Weather Roundup
Issued by NWS

Home | Current Version | Previous Version | Text Only | Print | Product List | Glossary Off
Versions: 1 2 3 4 5 6 7 8 9 10 11 12 13 14 15 16 17 18 19 20 21 22 23 24 25 26 27 28 29 30 31 32 33 34 35 36 37 38 39 40 41 42 43 44 45 46 47 48 49 50

000
ASUS43 KBIS 231002
RWRND

NORTH DAKOTA REGIONAL WEATHER ROUNDUP
NATIONAL WEATHER SERVICE BISMARCK ND
400 AM CST TUE JAN 23 2018

NOTE: "FAIR" INDICATES FEW OR NO CLOUDS BELOW 12,000 FEET WITH NO
SIGNIFICANT WEATHER AND/OR OBSTRUCTIONS TO VISIBILITY.


NDZ001>003-009>011-017-231100-
NORTHWEST NORTH DAKOTA

CITY           SKY/WX    TMP DP  RH WIND       PRES   REMARKS
WILLISTON      PTCLDY    19  15  84 SW12      30.00R WCI   7
MINOT          CLOUDY    12   8  84 SE5       29.95S WCI   4
MINOT AFB      CLOUDY     9   5  86 W3        29.93F
$$

NDZ018>021-031>035-040>046-231100-
SOUTHWEST NORTH DAKOTA

CITY           SKY/WX    TMP DP  RH WIND       PRES   REMARKS
BISMARCK       FOG       17  15  92 CALM      30.02S VSB 1/2
DICKINSON      MOCLDY    25  19  78 W13       29.97S WCI  14
GARRISON         N/A      8   5  87 CALM      29.97S
HETTINGER ARPT MOCLDY    24  18  77 NW10      30.02S WCI  14
$$

NDZ004>008-012>016-024-026-027-054-231100-
NORTHEAST NORTH DAKOTA

CITY           SKY/WX    TMP DP  RH WIND       PRES   REMARKS
GRAND FORKS    CLOUDY    21  16  81 E6        30.06F WCI  13
GRND FRKS AFB  CLOUDY    21  17  82 SE6       30.05F WCI  14
DEVILS LAKE    CLOUDY    19  17  92 S8        30.01S FOG     WCI   9
$$

NDZ022-023-025-028>030-036>039-047>053-231100-
SOUTHEAST NORTH DAKOTA

CITY           SKY/WX    TMP DP  RH WIND       PRES   REMARKS
FARGO          CLOUDY    20  18  92 N6        30.07R WCI  12
JAMESTOWN      CLOUDY    19  18  95 S8        30.01F FOG     WCI   9
$$




USA.gov is the U.S. government's official web portal to all federal, state and local government web resources and services.